Location: Dallas(GA)
(33.9240°N, 84.8410°W)
Time: 02:40:41
(UTC-04:00)

ISS - Visible Passes

Search period start: 28 September 2020 00:00
Search period end: 08 October 2020 00:00
Orbit: 419 x 421 km, 51.6° (Epoch: 29 September)

Date Brightness Start Highest point End Pass type
(mag) Time Alt. Az. Time Alt. Az. Time Alt. Az.
02 Oct -1.2 20:34:22 10° NNE 20:35:08 11° NNE 20:35:11 11° NNE visible
03 Oct -1.1 21:21:57 10° NNW 21:22:50 16° NNW 21:22:50 16° NNW visible
04 Oct -2.3 20:34:56 10° NNW 20:37:35 23° NNE 20:37:35 23° NNE visible
05 Oct -1.7 19:48:07 10° N 19:50:14 16° NNE 19:52:21 10° ENE visible
05 Oct -1.3 21:23:59 10° NW 21:25:25 23° WNW 21:25:25 23° WNW visible
06 Oct -3.9 20:36:37 10° NW 20:39:59 74° NE 20:40:23 63° E visible
07 Oct -3.1 19:49:25 10° NNW 19:52:36 39° NE 19:55:31 12° ESE visible
07 Oct -0.8 21:27:07 10° W 21:28:32 15° WSW 21:28:32 15° WSW visible
